Weather Roundup
Issued by NWS

Home | Current Version | Previous Version | Text Only | Print | Product List | Glossary On
Versions: 1 2 3 4 5 6 7 8 9 10 11 12 13 14 15 16 17 18 19 20 21 22 23 24 25 26 27 28 29 30 31 32 33 34 35 36 37 38 39 40 41 42 43 44 45 46 47 48 49 50
000
NZUS93 KARX 190610
HRRWXR

CURRENT HOURLY OBSERVATIONS ACROSS
MUCH OF THE UPPER MISSISSIPPI VALLEY
NATIONAL WEATHER SERVICE LA CROSSE WI
100 AM CDT FRI SEP 19 2014


...SOUTHEAST MINNESOTA...


CITY           SKY/WX    TMP DP  RH WIND       PRES   REMARKS
ROCHESTER      CLEAR     56  52  86 S9        30.05S
ROCHESTER/MAYO FAIR      57  51  80 SE9       30.04F
WINONA         CLEAR     55  52  88 SE3       30.07R
AUSTIN         CLEAR     55  52  88 S8        30.03S
ALBERT LEA     CLEAR     57  54  88 S8        30.01S
DODGE CENTER   CLEAR     54  52  94 S7        30.03S
PRESTON        CLEAR     55  55  97 S10       30.07R
OWATONNA       CLEAR     57  52  82 SE7       30.02R
FARIBAULT      CLEAR     61  52  72 SE7       30.01S
$$

...ELSEWHERE IN MINNESOTA...


CITY           SKY/WX    TMP DP  RH WIND       PRES   REMARKS
MINNEAPOLIS    CLEAR     59  52  77 SE12      29.99S
INTNL FALLS    CLOUDY    54  51  90 S9G17     29.81F
DULUTH         FAIR      53  49  86 S13       29.97F
RED WING       CLEAR     61  54  77 SE8       30.02S
REDWOOD FALLS  PTCLDY    58  50  75 S12       29.92S
MANKATO        CLOUDY    59  48  67 S9        29.98S
WORTHINGTON    PTCLDY    57  54  88 S18G24    29.96R
FAIRMONT       MOCLDY    55  45  67 S10       29.98F
$$

...SOUTHWEST WISCONSIN...


CITY           SKY/WX    TMP DP  RH WIND       PRES   REMARKS
LA CROSSE      CLEAR     58  53  84 S7        30.08R
PRAIRIE DU CHI CLEAR     56  51  81 E5        30.09S
BOSCOBEL       CLEAR     55  52  89 CALM      30.10F
LONE ROCK      CLEAR     53  49  86 E3        30.12F FOG
PLATTEVILLE    CLEAR     53  52  95 CALM      30.13F
FORT MC COY    CLEAR     48  48 100 NW5       30.10R
CAMP DOUGLAS   CLEAR     49  49 100 SE5       30.11R
VIROQUA        FAIR      54  54 100 SE9       30.10R
WIS DELLS      CLEAR     51  49  95 SE3       30.12F FOG
$$

...ELSEWHERE IN WISCONSIN...


CITY           SKY/WX    TMP DP  RH WIND       PRES   REMARKS
MILWAUKEE      PTCLDY    52  49  89 CALM      30.18S
MADISON        CLOUDY    52  50  93 SE7       30.16R FOG
GREEN BAY      CLEAR     45  44  97 CALM      30.16F FOG
EAU CLAIRE     CLEAR     54  51  90 S8        30.05S
BLACK RVR FLS  FAIR      44  44 100 CALM      30.08S FOG
MEDFORD        CLEAR     49  48  97 SE8       30.09R FOG
WAUSAU         MOCLDY    47  46  97 E5        30.11F FOG
WIS RAPIDS     CLEAR     51  49  92 SE8       30.11F
MARSHFIELD     CLEAR     50  48  93 S7        30.10S FOG
RICE LAKE      CLEAR     51  50  93 SE7       30.06S
$$

...NORTHEAST IOWA...


CITY           SKY/WX    TMP DP  RH WIND       PRES   REMARKS
WATERLOO       CLEAR     58  51  78 SE12      30.06R
DUBUQUE        CLEAR     54  53  97 SE10      30.12S
DECORAH        CLEAR     54  52  94 SE8       30.07R
MASON CITY     CLEAR     54  52  93 S6        30.04F
CHARLES CITY   CLEAR     55  52  88 SE9       30.06S
OELWEIN        CLEAR     55  52  88 SE10      30.08S
$$

...ELSEWHERE IN IOWA...


CITY           SKY/WX    TMP DP  RH WIND       PRES   REMARKS
DES MOINES     CLEAR     60  55  83 SE8       30.04S
IOWA CITY      CLEAR     53  51  93 SE5       30.10F
FORT DODGE     PTCLDY    61  54  77 S7        30.02F
MARSHALLTOWN   CLEAR     56  52  86 SE7       30.05S
CEDAR RAPIDS   CLEAR     56  51  84 SE7       30.08F
$$

...NORTHERN ILLINOIS...


CITY           SKY/WX    TMP DP  RH WIND       PRES   REMARKS
CHICAGO-OHARE  PTCLDY    58  52  80 NE5       30.16F
DUPAGE         CLEAR     56  54  93 E5        30.15S FOG
CHICAGO-MIDWAY CLEAR     61  58  90 E5        30.15F
MOLINE         CLEAR     54  49  83 E7        30.12S
ROCKFORD       PTCLDY    53  50  89 E6        30.18R
STERLING       CLEAR     48  46  93 E5        30.14R
PEORIA         CLEAR     58  52  80 E9        30.12S
$$

NOTE: "FAIR" INDICATES FEW OR NO CLOUDS BELOW 12,000 FEET WITH NO
SIGNIFICANT WEATHER AND/OR OBSTRUCTIONS TO VISIBILITY. WIND
SPEEDS ARE IN MILES-PER-HOUR.



USA.gov is the U.S. government's official web portal to all federal, state and local government web resources and services.